The Dalles, WA

2:51 AM PST on December 13, 2019 (GMT -0800)
Columbia Gorge Regional-The Dalles

Weather History for KDLS - November, 2019

Change the Weather History Date:

Thursday, November 14, 2019

  Actual Average Record
Temperature  
Mean Temperature 44 °F -  
Max Temperature 46 °F 49 °F 64 °F (2001)
Min Temperature 42 °F 34 °F 5 °F (1955)
Degree Days  
Heating Degree Days 21    
Moisture  
Dew Point 40 °F    
Average Humidity 86    
Maximum Humidity 93    
Minimum Humidity 71    
Precipitation  
Precipitation 0.00 in - - ()
Sea Level Pressure  
Sea Level Pressure 30.20 in    
Wind  
Wind Speed 1 mph (East)    
Max Wind Speed 9 mph    
Max Gust Speed -    
Visibility 5 miles    
Events      
Averages and records for this station are not official NWS values.
T = Trace of Precipitation, MM = Missing Value Source: NWS Daily Summary

Daily Weather History Graph

Daily Weather History Graph

Search for Another Location

Airport or City:

Astronomy

Nov. 14, 2019 Rise Set
Actual Time 7:02 AM PST 4:35 PM PST
Civil Twilight 6:30 AM PST 5:07 PM PST
Nautical Twilight 5:54 AM PST 5:43 PM PST
Astronomical Twilight 5:19 AM PST 6:18 PM PST
Moon 6:20 PM PST (11/14) 9:07 AM PST (11/14)
Length of Visible Light 10h 36m
Length of Day
9h 32m
Waning Gibbous, 95% of the Moon is Illuminated
Nov 14
Waning Gibbous
Nov 19
Last Quarter
Nov 26
New
Dec 3
First Quarter
Dec 11
Full

Hourly Weather History & Observations

Time (PST) Temp. Windchill Dew Point Humidity Pressure Visibility Wind Dir Wind Speed Gust Speed Precip Events Conditions
12:53 AM 42.1 °F - 39.0 °F 89% 30.24 in 3.0 mi Calm Calm - N/A   Overcast
1:53 AM 42.1 °F - 39.9 °F 92% 30.23 in 2.5 mi Calm Calm - N/A   Overcast
2:06 AM 42.1 °F - 39.0 °F 89% 30.23 in 2.5 mi Calm Calm - N/A   Overcast
2:45 AM 42.1 °F 40.2 °F 39.9 °F 92% 30.22 in 3.0 mi South 3.5 mph - N/A   Overcast
2:53 AM 42.1 °F 40.2 °F 39.9 °F 92% 30.23 in 3.0 mi South 3.5 mph - N/A   Overcast
3:18 AM 42.1 °F - 39.9 °F 92% 30.22 in 2.5 mi Calm Calm - N/A   Overcast
3:25 AM 42.1 °F - 39.9 °F 92% 30.22 in 2.0 mi Calm Calm - N/A   Overcast
3:44 AM 42.1 °F - 39.9 °F 92% 30.21 in 1.8 mi Calm Calm - N/A   Overcast
3:53 AM 42.1 °F - 39.9 °F 92% 30.22 in 1.8 mi Calm Calm - N/A   Overcast
4:01 AM 42.1 °F - 39.9 °F 92% 30.21 in 2.0 mi Calm Calm - N/A   Overcast
4:16 AM 42.1 °F - 39.9 °F 92% 30.21 in 1.8 mi Calm Calm - N/A   Overcast
4:38 AM 42.1 °F - 39.9 °F 92% 30.21 in 2.0 mi Calm Calm - N/A   Overcast
4:53 AM 42.1 °F - 39.9 °F 92% 30.22 in 1.8 mi Calm Calm - N/A   Overcast
5:53 AM 42.1 °F - 39.9 °F 92% 30.21 in 2.0 mi Calm Calm - N/A   Overcast
6:53 AM 42.1 °F - 39.9 °F 92% 30.22 in 3.0 mi Calm Calm - N/A   Overcast
7:02 AM 42.1 °F - 39.9 °F 92% 30.21 in 3.0 mi Calm Calm - N/A   Overcast
7:15 AM 42.1 °F - 39.9 °F 92% 30.21 in 3.0 mi Calm Calm - N/A   Overcast
7:53 AM 42.1 °F - 39.9 °F 92% 30.22 in 1.8 mi Calm Calm - N/A   Overcast
8:08 AM 43.0 °F - 39.9 °F 89% 30.22 in 1.8 mi Calm Calm - N/A   Overcast
8:17 AM 43.0 °F - 39.9 °F 89% 30.22 in 2.0 mi Calm Calm - N/A   Overcast
8:53 AM 43.0 °F - 39.9 °F 89% 30.23 in 2.5 mi Calm Calm - N/A   Overcast
9:01 AM 43.0 °F - 39.9 °F 89% 30.22 in 3.0 mi Calm Calm - N/A   Overcast
9:08 AM 43.0 °F - 39.9 °F 89% 30.22 in 2.5 mi Calm Calm - N/A   Overcast
9:37 AM 43.0 °F - 41.0 °F 93% 30.22 in 2.5 mi Calm Calm - N/A   Overcast
9:44 AM 43.0 °F - 41.0 °F 93% 30.22 in 3.0 mi Calm Calm - N/A   Overcast
9:53 AM 43.0 °F - 41.0 °F 93% 30.23 in 3.0 mi Calm Calm - N/A   Overcast
10:11 AM 44.1 °F - 41.0 °F 89% 30.21 in 5.0 mi Calm Calm - N/A   Overcast
10:53 AM 45.0 °F - 41.0 °F 86% 30.22 in 5.0 mi Calm Calm - N/A   Overcast
11:12 AM 45.0 °F - 41.0 °F 86% 30.20 in 6.0 mi Calm Calm - N/A   Overcast
11:26 AM 46.0 °F 44.8 °F 42.1 °F 86% 30.19 in 7.0 mi Variable 3.5 mph - N/A   Overcast
11:37 AM 46.9 °F - 41.0 °F 80% 30.19 in 9.0 mi ENE 4.6 mph - N/A   Overcast
11:53 AM 46.9 °F - 41.0 °F 80% 30.19 in 10.0 mi ENE 6.9 mph - N/A   Overcast
12:14 PM 46.9 °F - 39.9 °F 77% 30.17 in 10.0 mi NE 5.8 mph - N/A   Overcast
12:53 PM 46.9 °F - 41.0 °F 80% 30.17 in 10.0 mi NE 6.9 mph - N/A   Overcast
1:53 PM 46.9 °F - 39.9 °F 77% 30.16 in 10.0 mi ENE 9.2 mph - N/A   Overcast
2:53 PM 46.9 °F - 39.0 °F 74% 30.15 in 10.0 mi ENE 8.1 mph - N/A   Overcast
3:53 PM 46.9 °F - 39.0 °F 74% 30.15 in 10.0 mi ENE 9.2 mph - N/A   Overcast
4:53 PM 46.9 °F - 39.0 °F 74% 30.14 in 10.0 mi ENE 5.8 mph - N/A   Overcast
5:53 PM 46.9 °F - 37.9 °F 71% 30.15 in 10.0 mi East 5.8 mph - N/A   Overcast
6:53 PM 46.0 °F 43.9 °F 39.0 °F 76% 30.15 in 10.0 mi ESE 4.6 mph - N/A   Overcast
7:53 PM 46.0 °F 43.1 °F 39.0 °F 76% 30.14 in 10.0 mi East 5.8 mph - N/A   Overcast
8:53 PM 45.0 °F - 39.0 °F 80% 30.15 in 10.0 mi Calm Calm - N/A   Overcast
9:53 PM 45.0 °F - 39.9 °F 82% 30.15 in 10.0 mi Calm Calm - N/A   Overcast
10:53 PM 45.0 °F - 39.9 °F 82% 30.14 in 10.0 mi Calm Calm - N/A   Overcast
11:53 PM 44.1 °F 42.5 °F 39.9 °F 85% 30.14 in 10.0 mi SW 3.5 mph - N/A   Overcast